OBJECT C

Satellite information

Favourite Embed

Satellite Type and Status

UNKNOWNIN ORBIT

Key statistics

Satellite OBJECT C at a glance.

Uptime

479

Days in orbit

Revolutions

≈ 15.0

Per day

Orbit

LEO

Low Earth Orbit

Inclination

62.0

Latest

Satellite identification and parameters

Extended collection of information and parameters for OBJECT C.

Object identification

Identified? True

Debris? False

Object name: OBJECT C

International designator: 2024-128C

Object number (NORAD): 60237

Object ID (CCSDS): 60237

Country: TO BE DETERMINED/UNKNOWN (TBD)

Current information (Y/N): Y

RCS size: SMALL

Orbital parameters

Period: 95.737 minutes

Inclination: 61.9907 deg

SMA: 6932.357 km

Apoapsis: 593.783 km

Periapsis: 514.662 km

RAAN: 301.5071 deg

Eccentricy: 0.00570666

Argument of periapsis: 87.3527 deg

Mean anomaly: 273.4095 deg

Mean motion: 15.04116019 rev/day

Mean motion (dot): 0.00006338 rev/day2

B* drag term: 0.00045381586 1/REarth

Two-line elements (TLE)

Creation date: Oct. 30, 2025, 10:34 a.m.

Reference frame: TEME

Reference center: EARTH

Epoch: Oct. 30, 2025, 6:47 a.m. UTC

TLE line 0: 0 OBJECT C

TLE line 1: 1 60237U 24128C 25303.28309994 .00006338 00000-0 45382-3 0 9997

TLE line 2: 2 60237 61.9907 301.5071 0057067 87.3527 273.4095 15.04116019 71653

Live tracking on map

Real-time ground track for satellite OBJECT C.

In-orbit conjunctions

There are no conjunctions computed for OBJECT C, at the moment. Check back to stay up to date, as we update our databases every day.

Go to all conjunctions

Associated space launch

Maiden Flight of the Ariane 62 launch vehicle, carrying ten cubesats, two deployers, five experiments, and two reentry capsules.

OBJECT C was lifted into orbit during the mission ‘Ariane 62 | Maiden Flight’, on board a Ariane 62 space rocket.

The launch took place on July 9, 2024, 7 p.m. from Ariane Launch Area 4.

For more information about the launch, click the button.

Launch to space Ariane 62 | Maiden Flight
Ariane 62 | Maiden Flight

Agency: European Space Agency

Status: Launch Successful

Launch date: July 9, 2024, 7 p.m. UTC

Rocket: Ariane 62

Launch pad: Ariane Launch Area 4

Location: Guiana Space Centre, French Guiana

...

Latest news about this satellite

News about space launch
ESA 2024 Highlights: flight of the Ariane 6

In 2024, ESA continued to drive Europe’s innovation and excellence in space, equipping the continent with advanced tools and knowledge to address global and local challenges. The year saw pioneering missions, cutting-edge satellites and the pivotal restor...

News about space launch
Europe lifts off from its launcher crisis

For the European space industry, the deafening rumble of the ascending rocket was a sigh of relief. On the afternoon of July 9, an Ariane 6 lifted off on a […]

News about space launch
Ariane 6 joint update report, 16 September 2024

The Ariane 6 Launcher Task Force consists of top management of ESA, as the overall Ariane 6 procuring entity and launch system architect, of the French space agency CNES as the launch base prime contractor, of ArianeGroup as the launcher system prime cont...


Newsletter sign-up

Weekly statistics, charts and insights to help you stay on top of the space industry.